Shreveport, LA

6:19 PM CDT on September 25, 2016 (GMT -0500)
Barksdale Air Force Base

Weather History for KBAD - January, 2014

Change the Weather History Date:

Monday, January 6, 2014

  Actual Average Record
Temperature  
Mean Temperature 23 °F -  
Max Temperature 30 °F 55 °F 75 °F (2008)
Min Temperature 16 °F 36 °F 16 °F (2014)
Degree Days  
Heating Degree Days 42    
Moisture  
Dew Point 4 °F    
Average Humidity 47    
Maximum Humidity 69    
Minimum Humidity 28    
Precipitation  
Precipitation 0.00 in - - ()
Sea Level Pressure  
Sea Level Pressure 30.63 in    
Wind  
Wind Speed 13 mph (NNW)    
Max Wind Speed 18 mph    
Max Gust Speed 26 mph    
Visibility 10 miles    
Events      
Averages and records for this station are not official NWS values.
T = Trace of Precipitation, MM = Missing Value Source: NWS Daily Summary

Daily Weather History Graph

Daily Weather History Graph

Search for Another Location

Airport or City:

Trip Planner

Search our weather history database for the weather conditions in past years. The results will help you decide how hot, cold, wet, or windy it might be!

Date:

Astronomy

Jan. 06, 2014 Rise Set
Actual Time 7:17 AM CST 5:24 PM CST
Civil Twilight 6:50 AM CST 5:51 PM CST
Nautical Twilight 6:19 AM CST 6:21 PM CST
Astronomical Twilight 5:49 AM CST 6:51 PM CST
Moon 10:54 AM CST (1/6) 11:34 PM CST (1/6)
Length of Visible Light 11h 00m
Length of Day
10h 07m
Waxing Crescent, 35% of the Moon is Illuminated
Jan 6
Waxing Crescent
Jan 7
First Quarter
Jan 15
Full
Jan 23
Last Quarter
Jan 30
New

Hourly Weather History & Observations

Time (CST) Temp. Windchill Dew Point Humidity Pressure Visibility Wind Dir Wind Speed Gust Speed Precip Events Conditions
12:58 AM 22.6 °F 8.7 °F 13.6 °F 68% 30.49 in 10.0 mi NNW 17.3 mph - N/A   Clear
1:58 AM 21.7 °F 9.6 °F 12.9 °F 69% 30.51 in 10.0 mi NNW 12.7 mph - N/A   Clear
2:58 AM 21.2 °F 7.8 °F 10.6 °F 64% 30.55 in 10.0 mi NNW 15.0 mph - N/A   Clear
3:58 AM 20.3 °F 8.3 °F 9.7 °F 64% 30.56 in 10.0 mi North 11.5 mph - N/A   Clear
4:58 AM 18.7 °F 5.1 °F 8.6 °F 65% 30.59 in 10.0 mi NNW 13.8 mph - N/A   Clear
5:58 AM 17.4 °F 4.7 °F 7.3 °F 65% 30.60 in 10.0 mi NNW 11.5 mph - N/A   Clear
6:58 AM 16.9 °F 5.5 °F 5.9 °F 62% 30.63 in 10.0 mi NNW 9.2 mph - N/A   Clear
7:58 AM 17.6 °F 5.7 °F 5.0 °F 58% 30.66 in 10.0 mi NNW 10.4 mph - N/A   Clear
8:58 AM 19.9 °F 7.9 °F 3.2 °F 48% 30.70 in 10.0 mi North 11.5 mph - N/A   Clear
9:58 AM 22.6 °F 11.9 °F 3.0 °F 43% 30.70 in 10.0 mi North 10.4 mph - N/A   Clear
10:58 AM 25.7 °F 12.3 °F 1.6 °F 35% 30.69 in 10.0 mi North 18.4 mph 24.2 mph N/A   Clear
11:56 AM 26.6 °F 13.4 °F 1.4 °F 34% 30.65 in 10.0 mi NNW 18.4 mph 21.9 mph N/A   Clear
11:58 AM 26.6 °F 14.3 °F 0.9 °F 33% 30.67 in 10.0 mi NNW 16.1 mph 21.9 mph N/A   Clear
12:58 PM 29.1 °F 17.9 °F 2.7 °F 32% 30.64 in 10.0 mi North 15.0 mph 26.5 mph N/A   Clear
1:58 PM 30.2 °F 18.9 °F 0.9 °F 29% 30.63 in 10.0 mi North 16.1 mph - N/A   Clear
2:58 PM 30.9 °F 20.2 °F 1.2 °F 28% 30.63 in 10.0 mi North 15.0 mph 20.7 mph N/A   Clear
3:58 PM 30.7 °F 18.8 °F 0.5 °F 28% 30.63 in 10.0 mi NNW 18.4 mph - N/A   Clear
4:58 PM 28.2 °F 18.3 °F -0.4 °F 29% 30.63 in 10.0 mi North 11.5 mph - N/A   Clear
5:58 PM 25.0 °F 16.3 °F 1.2 °F 36% 30.64 in 10.0 mi North 8.1 mph - N/A   Clear
6:58 PM 22.1 °F 12.8 °F 2.3 °F 42% 30.66 in 10.0 mi North 8.1 mph - N/A   Clear
7:58 PM 22.1 °F 15.9 °F 3.0 °F 44% 30.65 in 10.0 mi North 4.6 mph - N/A   Clear
8:58 PM 22.8 °F 18.2 °F 1.4 °F 40% 30.66 in 10.0 mi NNW 3.5 mph - N/A   Clear
9:58 PM 21.6 °F 16.8 °F 3.0 °F 45% 30.67 in 10.0 mi North 3.5 mph - N/A   Clear
10:58 PM 19.6 °F 14.5 °F 4.8 °F 53% 30.65 in 10.0 mi North 3.5 mph - N/A   Clear
11:58 PM 18.9 °F - 4.8 °F 54% 30.64 in 10.0 mi North 1.2 mph - N/A   Clear